[[{"header":{"parameterUnit":"m.s-1","parameterCategory":1,"la1":30.2991,"la2":30.254,"lo1":-89.0895,"lo2":-89.0444,"dy":0.0017,"dx":0.0017,"nx":28,"ny":28,"refTime":"2023-09-21T21:00:00:Z","depth":0,"parameterNumber":2,"parameterNumberName":"U-component_of_WINDS"},"data":[0,0,0,0,0,0,0,0,0,0,0,0,0,0,0,0,0,0,0,0,0,0,0,0,0,0,0,0,0,0,0,0,0,0,0,0,0,0,0,0,0,0,0,0,0,0,0,0,0,0,0,0,0,0,0,0,0,0,-2.9736,-2.9736,0,-2.9726,-2.9726,-2.9726,-2.964,-2.9638,-2.9636,-2.9634,-2.9627,-2.9629,-2.963,0,0,0,0,0,0,0,0,0,0,0,0,0,-2.9683,-2.9685,-2.9736,-2.9736,-2.9735,-2.9726,-2.9726,-2.9726,-2.964,-2.9638,-2.9635,-2.9633,-2.9626,-2.9628,-2.9631,0,0,0,0,0,0,0,0,0,0,0,0,0,-2.9693,-2.9685,-2.9736,-2.9691,-2.9687,-2.9726,-2.9726,-2.9726,-2.9641,-2.9638,-2.9634,-2.9631,-2.9626,-2.9628,-2.9631,-2.9712,0,0,-2.9639,-2.964,0,0,0,0,0,0,0,0,-2.9693,-2.9695,-2.9698,-2.9695,-2.969,-2.9681,-2.9705,-2.9721,-2.9642,-2.9659,-2.9634,-2.963,-2.9648,-2.9648,-2.9654,-2.9712,-2.9712,-2.964,-2.9641,-2.9642,-2.9643,0,0,0,0,0,0,0,-2.9692,-2.9695,-2.9732,-2.9698,-2.9693,-2.9673,-2.9671,-2.9708,-2.9671,-2.9657,-2.9651,-2.9651,-2.9645,-2.9651,-2.9653,-2.9712,-2.9639,-2.9642,-2.9644,-2.9645,-2.9839,-2.9843,0,0,0,0,0,0,-2.9697,-2.9695,-2.9732,-2.9732,-2.9683,-2.9677,-2.9675,-2.9687,-2.9671,-2.9665,-2.9653,-2.9647,-2.9648,-2.965,-2.9652,-2.9749,-2.9642,-2.9645,-2.9646,-2.9836,-2.984,-2.9844,0,0,0,0,0,0,-2.9696,-2.9701,-2.9733,-2.9712,-2.9714,-2.9681,-2.9696,-2.9689,-2.9695,-2.9668,-2.9661,-2.9666,-2.9646,-2.9649,-2.9699,-2.9747,-2.9646,-2.9649,-2.9832,-2.9837,-2.9842,-2.9941,0,0,0,0,0,0,-2.9695,-2.9702,-2.9731,-2.9713,-2.9716,-2.9778,-2.9699,-2.9691,-2.97,-2.9691,-2.9679,-2.9673,-2.9643,-2.9695,-2.9701,-2.9749,-2.9651,-2.9827,-2.9834,-2.984,-2.9934,-2.9949,-2.9963,0,0,0,0,0,-2.9694,-2.9759,-2.9733,-2.9738,-2.9752,-2.9781,-2.9782,-2.9746,-2.9704,-2.9734,-2.9717,-2.9674,-2.9741,-2.9701,-2.9707,-2.9757,-2.9824,-2.9832,-2.984,-2.9927,-2.9946,-2.9963,0,0,0,0,0,0,-2.9785,-2.9756,-2.9727,-2.9788,-2.9788,-2.9766,-2.9803,-2.9767,-2.9779,-2.977,-2.9725,-2.9723,-2.9781,-2.9773,-2.9729,-2.9836,-2.9775,-2.9785,-2.9839,-2.9857,-2.9872,-2.9873,-2.9653,0,0,0,0,0,-2.9812,-2.9837,-2.9811,-2.9868,-2.9869,-2.9837,-2.9848,-2.982,-2.9818,-2.9817,-2.9804,-2.9804,-2.9826,-2.9841,-2.9858,-2.9932,-2.993,-2.9969,-2.9984,-2.9996,-3.0006,-3.0047,-3.0065,-2.987,-2.987,-2.987,0,0,-2.9868,-2.9856,-2.9874,-2.9886,-2.9882,-2.9911,-2.9837,-2.9869,-2.9891,-2.9822,-2.9869,-2.986,-2.9857,-2.992,-2.9947,-2.9916,-3.0059,-3.0006,-3.0016,-3.0019,-3.0057,-3.0076,-3.0092,-2.9875,-2.9874,-2.9874,0,0,-2.9986,-2.9978,-3.0026,-3.0024,-3.0019,-2.9997,-3.0009,-2.9994,-2.9985,-3.0031,-2.9981,-3.0006,-3.0043,-3.0044,-3.005,-3.0171,-3.0132,-3.0178,-3.0255,-3.0296,-3.0311,-3.0325,-3.0371,-3.0387,-3.0187,-3.0187,-3.0187,0,-3.0057,-3.0097,-3.0055,-3.0092,-3.01,-3.0038,-3.0088,-3.0088,-3.009,-3.0098,-3.0062,-3.0109,-3.0103,-3.0167,-3.0196,-3.0202,-3.0216,-3.018,-3.0312,-3.0325,-3.0337,-3.0381,-3.0398,-3.0193,-3.0192,-3.0192,-3.0191,0,-3.0186,-3.0215,-3.0254,-3.0258,-3.0269,-3.0312,-3.0279,-3.0296,-3.0267,-3.025,-3.03,-3.029,-3.0307,-3.0319,-3.0291,-3.038,-3.0361,-3.032,-3.0258,-3.0362,-3.0402,-3.0418,-3.0201,-3.0199,-3.0197,-3.0196,0,0,-3.0361,-3.0342,-3.0357,-3.0359,-3.035,-3.0372,-3.0413,-3.0429,-3.0446,-3.0449,-3.0485,-3.0518,-3.048,-3.0487,-3.0459,-3.0494,-3.0594,-3.0448,-3.0448,-3.0478,-3.0695,-3.0728,-3.0748,-3.0568,-3.0571,-3.0573,-3.0696,0,-3.0477,-3.0545,-3.051,-3.0583,-3.0611,-3.0554,-3.059,-3.059,-3.0575,-3.0598,-3.0581,-3.0607,-3.0554,-3.0558,-3.059,-3.0575,-3.0638,-3.0566,-3.0603,-3.0605,-3.0608,-3.0768,-3.0803,-3.0919,-3.0711,-3.0714,-3.0716,0,-3.0621,-3.0631,-3.0708,-3.0696,-3.0706,-3.0739,-3.0752,-3.0773,-3.0772,-3.0759,-3.0768,-3.0732,-3.0774,-3.0711,-3.0769,-3.0721,-3.0734,-3.073,-3.0733,-3.0737,-3.0668,-3.0779,-3.0955,-3.0974,-3.074,-3.0738,-3.0736,0,-3.0744,-3.0777,-3.0828,-3.0831,-3.0817,-3.0842,-3.0838,-3.0834,-3.0846,-3.0858,-3.0866,-3.0882,-3.0892,-3.0906,-3.0877,-3.0833,-3.0941,-3.0875,-3.0934,-3.0935,-3.096,-3.096,-3.1144,-3.0965,-3.0965,-3.0964,-3.0964,0,-3.0878,-3.0928,-3.0883,-3.0915,-3.097,-3.0929,-3.0985,-3.0975,-3.0972,-3.1002,-3.0953,-3.0983,-3.0941,-3.0967,-3.0944,-3.0998,-3.1002,-3.0995,-3.0989,-3.1001,-3.1002,-3.101,-3.1002,-3.0969,-3.0968,-3.0967,-3.0966,0,-3.1026,-3.0997,-3.105,-3.1033,-3.103,-3.1072,-3.1058,-3.1088,-3.107,-3.1109,-3.1116,-3.1089,-3.1117,-3.1089,-3.1115,-3.11,-3.1173,-3.1154,-3.1174,-3.1169,-3.123,-3.1226,-3.1428,-3.1454,-3.1257,-3.1259,-3.126,0,-3.1115,-3.1152,-3.114,-3.1156,-3.1155,-3.1181,-3.1194,-3.1156,-3.1171,-3.1175,-3.1205,-3.1229,-3.1246,-3.1295,-3.1279,-3.13,-3.1282,-3.1352,-3.1285,-3.1297,-3.1287,-3.1286,-3.1291,-3.1366,-3.1368,-3.137,-3.1372,0,-3.1276,-3.126,-3.128,-3.1296,-3.1312,-3.1323,-3.1329,-3.1346,-3.1307,-3.1327,-3.1355,-3.1369,-3.1397,-3.1423,-3.1439,-3.1436,-3.1399,-3.1393,-3.1408,-3.1422,-3.1433,-3.1431,-3.1213,-3.1389,-3.1387,-3.1386,-3.1385,-3.1384,-3.1398,-3.143,-3.1427,-3.1451,-3.1452,-3.1461,-3.1488,-3.1474,-3.1497,-3.1516,-3.1492,-3.1528,-3.1529,-3.1547,-3.1549,-3.1578,-3.1549,-3.157,-3.1576,-3.1583,-3.1593,-3.1426,-3.158,-3.158,-3.1579,-3.1579,-3.1578,0,-3.156,-3.1555,-3.1578,-3.1589,-3.1609,-3.157,-3.1577,-3.1597,-3.1628,-3.1632,-3.165,-3.1684,-3.171,-3.1696,-3.1718,-3.1744,-3.1728,-3.1752,-3.1751,-3.1752,-3.1616,-3.1602,-3.1765,-3.1765,-3.1765,-3.1765,-3.1765,-3.1765,-3.1646,-3.1698,-3.1683,-3.1736,-3.1731,-3.1765,-3.1773,-3.1781,-3.1784,-3.1824,-3.1844,-3.1835,-3.1832,-3.1854,-3.1877,-3.1872,-3.1884,-3.1915,-3.1905,-3.1779,-3.1761,-3.1743,-3.173,-3.1917,-3.1917,-3.2038,-3.2039,-3.204]},{"header":{"parameterUnit":"m.s-1","parameterCategory":1,"la1":30.2991,"la2":30.254,"lo1":-89.0895,"lo2":-89.0444,"dy":0.0017,"dx":0.0017,"nx":28,"ny":28,"refTime":"2023-09-21T21:00:00:Z","depth":0,"parameterNumber":3,"parameterNumberName":"V-component_of_WINDS"},"data":[0,0,0,0,0,0,0,0,0,0,0,0,0,0,0,0,0,0,0,0,0,0,0,0,0,0,0,0,0,0,0,0,0,0,0,0,0,0,0,0,0,0,0,0,0,0,0,0,0,0,0,0,0,0,0,0,0,0,-0.1931,-0.1931,0,-0.1962,-0.1962,-0.1962,-0.1962,-0.1961,-0.1961,-0.196,-0.1994,-0.1995,-0.1996,0,0,0,0,0,0,0,0,0,0,0,0,0,-0.1873,-0.1874,-0.1931,-0.1931,-0.1931,-0.1961,-0.1962,-0.1962,-0.1962,-0.1961,-0.1961,-0.196,-0.1993,-0.1995,-0.1996,0,0,0,0,0,0,0,0,0,0,0,0,0,-0.1901,-0.1875,-0.193,-0.1935,-0.1935,-0.1961,-0.1962,-0.1962,-0.1962,-0.1961,-0.1961,-0.196,-0.1993,-0.1995,-0.1997,-0.2021,0,0,-0.2003,-0.2003,0,0,0,0,0,0,0,0,-0.1899,-0.1903,-0.1934,-0.1934,-0.1935,-0.1957,-0.1954,-0.1982,-0.1962,-0.1952,-0.196,-0.196,-0.1982,-0.1985,-0.1992,-0.2023,-0.2024,-0.2003,-0.2004,-0.2005,-0.2005,0,0,0,0,0,0,0,-0.1897,-0.1902,-0.1943,-0.1934,-0.1935,-0.1936,-0.1939,-0.1959,-0.197,-0.1953,-0.1953,-0.1956,-0.1983,-0.199,-0.1993,-0.2025,-0.2003,-0.2004,-0.2006,-0.2006,-0.2079,-0.208,0,0,0,0,0,0,-0.1894,-0.19,-0.1942,-0.1944,-0.1915,-0.1937,-0.1941,-0.1951,-0.197,-0.1972,-0.1957,-0.1956,-0.1987,-0.1991,-0.1994,-0.2026,-0.2005,-0.2007,-0.2008,-0.2079,-0.208,-0.208,0,0,0,0,0,0,-0.1893,-0.1898,-0.1941,-0.1922,-0.1927,-0.1939,-0.195,-0.1952,-0.1959,-0.1973,-0.1975,-0.1963,-0.1987,-0.1991,-0.2015,-0.2027,-0.2007,-0.2009,-0.2078,-0.2079,-0.208,-0.2089,0,0,0,0,0,0,-0.1891,-0.1898,-0.1906,-0.1922,-0.1928,-0.196,-0.1951,-0.1953,-0.1963,-0.1962,-0.1979,-0.1981,-0.1987,-0.2012,-0.2017,-0.203,-0.2011,-0.2077,-0.2078,-0.208,-0.2088,-0.209,-0.2093,0,0,0,0,0,-0.1889,-0.1908,-0.1907,-0.1912,-0.194,-0.1961,-0.1964,-0.197,-0.1963,-0.1973,-0.1982,-0.1981,-0.2025,-0.2014,-0.202,-0.2033,-0.2076,-0.2078,-0.208,-0.2087,-0.209,-0.2093,0,0,0,0,0,0,-0.1893,-0.191,-0.1909,-0.1933,-0.1945,-0.1961,-0.1973,-0.1973,-0.1988,-0.1987,-0.1993,-0.1997,-0.2021,-0.2029,-0.2018,-0.2059,-0.205,-0.2053,-0.2053,-0.2056,-0.2059,-0.2057,-0.2012,0,0,0,0,0,-0.1897,-0.1912,-0.1926,-0.1945,-0.1952,-0.1961,-0.1971,-0.1974,-0.1987,-0.1993,-0.2003,-0.2017,-0.2034,-0.2046,-0.2062,-0.2088,-0.2093,-0.21,-0.2103,-0.2105,-0.2108,-0.2125,-0.2129,-0.2086,-0.2086,-0.2086,0,0,-0.1904,-0.1915,-0.1924,-0.1946,-0.1957,-0.1973,-0.1966,-0.1983,-0.1996,-0.1996,-0.2019,-0.2027,-0.2043,-0.2069,-0.2081,-0.2076,-0.212,-0.2107,-0.2108,-0.2111,-0.2127,-0.2131,-0.2135,-0.2088,-0.2087,-0.2087,0,0,-0.1927,-0.1936,-0.1954,-0.1965,-0.198,-0.1987,-0.1991,-0.2007,-0.2012,-0.2036,-0.2036,-0.2052,-0.208,-0.2093,-0.2102,-0.2131,-0.2131,-0.2136,-0.215,-0.2166,-0.2169,-0.2172,-0.2185,-0.2189,-0.2139,-0.2139,-0.2139,0,-0.1935,-0.196,-0.1964,-0.1982,-0.1993,-0.1992,-0.2012,-0.2022,-0.2042,-0.205,-0.2045,-0.2082,-0.2092,-0.2122,-0.2129,-0.2136,-0.2143,-0.2135,-0.2168,-0.2171,-0.2174,-0.2186,-0.2191,-0.2139,-0.2139,-0.2139,-0.2139,0,-0.197,-0.1987,-0.2,-0.202,-0.2031,-0.205,-0.2058,-0.207,-0.2072,-0.2079,-0.2104,-0.2117,-0.2137,-0.2143,-0.2145,-0.2174,-0.2171,-0.2167,-0.2158,-0.2179,-0.2191,-0.2195,-0.214,-0.214,-0.214,-0.214,0,0,-0.1996,-0.2019,-0.2024,-0.2034,-0.2051,-0.2065,-0.2084,-0.2103,-0.2114,-0.2128,-0.2146,-0.217,-0.2167,-0.2178,-0.2182,-0.2196,-0.2221,-0.219,-0.2191,-0.2198,-0.2256,-0.226,-0.2265,-0.222,-0.2221,-0.2222,-0.2255,0,-0.2023,-0.2057,-0.2062,-0.2092,-0.211,-0.211,-0.2127,-0.214,-0.2148,-0.2164,-0.2172,-0.2191,-0.2184,-0.2191,-0.2205,-0.2215,-0.2233,-0.2212,-0.2239,-0.224,-0.2237,-0.2271,-0.2276,-0.2307,-0.2259,-0.226,-0.2261,0,-0.2058,-0.2074,-0.2106,-0.2123,-0.213,-0.2145,-0.2165,-0.2179,-0.2195,-0.22,-0.2213,-0.2215,-0.2236,-0.2225,-0.2256,-0.2242,-0.2253,-0.2259,-0.2261,-0.2265,-0.2253,-0.2279,-0.2316,-0.2322,-0.2267,-0.2267,-0.2266,0,-0.2077,-0.2106,-0.2129,-0.2138,-0.2157,-0.2168,-0.2177,-0.2192,-0.2204,-0.222,-0.2229,-0.2247,-0.2258,-0.2273,-0.2281,-0.2272,-0.2312,-0.2301,-0.2319,-0.2319,-0.2329,-0.2328,-0.2371,-0.2332,-0.2332,-0.2332,-0.2332,0,-0.2107,-0.2128,-0.2139,-0.2153,-0.2177,-0.2182,-0.2206,-0.2214,-0.2228,-0.2245,-0.2246,-0.2263,-0.2271,-0.2289,-0.2295,-0.2321,-0.2325,-0.2331,-0.2333,-0.2332,-0.2332,-0.2341,-0.234,-0.2333,-0.2333,-0.2332,-0.2332,0,-0.2133,-0.2141,-0.2167,-0.2184,-0.2189,-0.2205,-0.222,-0.2235,-0.2243,-0.2265,-0.227,-0.2282,-0.2304,-0.2313,-0.2339,-0.2343,-0.2374,-0.2373,-0.2369,-0.237,-0.2388,-0.2387,-0.244,-0.2448,-0.2401,-0.2402,-0.2402,0,-0.2153,-0.2169,-0.2187,-0.2199,-0.2208,-0.2227,-0.2239,-0.2246,-0.2259,-0.2278,-0.2292,-0.2313,-0.2331,-0.2365,-0.2377,-0.2398,-0.2399,-0.2416,-0.2402,-0.2402,-0.2402,-0.2402,-0.2405,-0.2419,-0.242,-0.242,-0.242,0,-0.2188,-0.2191,-0.2209,-0.2228,-0.2243,-0.2258,-0.2273,-0.2283,-0.2292,-0.2307,-0.2329,-0.2343,-0.237,-0.2392,-0.2414,-0.2424,-0.2425,-0.2424,-0.243,-0.2431,-0.2429,-0.2433,-0.2378,-0.2423,-0.2423,-0.2423,-0.2423,-0.2423,-0.2213,-0.2228,-0.2244,-0.2264,-0.2276,-0.2291,-0.2306,-0.2316,-0.2334,-0.2357,-0.236,-0.2384,-0.2401,-0.243,-0.2441,-0.2461,-0.2457,-0.2464,-0.2467,-0.2469,-0.2472,-0.2424,-0.2465,-0.2464,-0.2464,-0.2464,-0.2464,0,-0.225,-0.226,-0.2279,-0.23,-0.2317,-0.2315,-0.2332,-0.2346,-0.2367,-0.2383,-0.24,-0.2427,-0.2449,-0.2462,-0.2485,-0.2498,-0.2499,-0.2504,-0.2504,-0.2507,-0.2473,-0.2467,-0.2503,-0.2503,-0.2503,-0.2503,-0.2503,-0.2503,-0.2271,-0.2297,-0.2303,-0.2336,-0.2346,-0.237,-0.2381,-0.2395,-0.2407,-0.2437,-0.2455,-0.2464,-0.2479,-0.2503,-0.2523,-0.2527,-0.2536,-0.2542,-0.2545,-0.2513,-0.2509,-0.2506,-0.25,-0.2543,-0.2543,-0.2579,-0.2579,-0.2579]}]]